Location: Huntsville
(41.2590°N, 111.7678°W)
Time: 20:28:25
(UTC+00:00)

N. Korean satellite - Pass Details

Date: 08 December 2021
Orbit: 446 x 492 km, 97.3° (Epoch: 18 January)

Event Time Altitude Azimuth Distance (km) Brightness Sun altitude
Rises 13:49:59 0° 349° (N) 2,458 9.8 -9.3°
Reaches altitude 10° 13:53:03 10° 318° (NW) 1,579 8.6 -8.8°
Maximum altitude 13:54:25 12° 294° (WNW) 1,453 8.3 -8.6°
Drops below altitude 10° 13:55:47 10° 270° (W) 1,575 8.6 -8.3°
Sets 13:58:50 0° 238° (WSW) 2,445 9.8 -7.8°
